UAE34E OMDB-LGAV

Flight info

Callsign UAE34E
Flight time 4h 25m
Altitude 36000
Route RIDAP M557 TUMAK L602 GADSI M703 ANBAR DCT RAPLU G202 TAN R655 LEBOR UR655 BALMA DCT EVENO UM601 RDS UL995 USINI DCT AKINA UL995 PIDAX L995 VARIX
Aircraft B77W/H-SDE1E2E3FGHIJ2J3J4J5M1RWXY/LB1D1

Departure

Time 2026-04-23 12:23
Airport Dubai International Airport (OMDB)

Arrival

Time 2026-04-23 16:48
Airport Athens Eleftherios Venizelos International Airport (LGAV)
Time Latitude Longitude Altitude Speed Heading
2026-04-23 12:02 25.24264 55.37521 23 ft 0 kts 211°
2026-04-23 12:10 25.24285 55.37535 29 ft 4 kts 211°
2026-04-23 12:11 25.24308 55.37551 32 ft 4 kts 211°
2026-04-23 12:11 25.24328 55.37564 31 ft 4 kts 191°
2026-04-23 12:11 25.24350 55.37559 31 ft 4 kts 133°
2026-04-23 12:11 25.24366 55.37535 31 ft 3 kts 122°
2026-04-23 12:12 25.24369 55.37528 31 ft 0 kts 122°
2026-04-23 12:14 25.24359 55.37546 31 ft 10 kts 122°
2026-04-23 12:15 25.24310 55.37635 28 ft 14 kts 121°
2026-04-23 12:15 25.24268 55.37708 28 ft 8 kts 122°
2026-04-23 12:15 25.24263 55.37765 30 ft 8 kts 57°
2026-04-23 12:15 25.24295 55.37795 30 ft 0 kts 34°
2026-04-23 12:17 25.24296 55.37796 30 ft 1 kts 34°
2026-04-23 12:17 25.24317 55.37812 26 ft 4 kts 34°
2026-04-23 12:17 25.24329 55.37820 26 ft 0 kts 34°
2026-04-23 12:17 25.24329 55.37821 26 ft 0 kts 34°
2026-04-23 12:20 25.24333 55.37823 26 ft 4 kts 34°
2026-04-23 12:20 25.24412 55.37883 28 ft 20 kts 34°
2026-04-23 12:21 25.24550 55.37989 28 ft 25 kts 35°
2026-04-23 12:21 25.24615 55.38036 28 ft 5 kts 31°
2026-04-23 12:21 25.24646 55.38057 28 ft 5 kts 31°
2026-04-23 12:21 25.24685 55.38084 30 ft 8 kts 31°
2026-04-23 12:22 25.24730 55.38113 30 ft 6 kts 22°
2026-04-23 12:22 25.24768 55.38092 31 ft 7 kts 307°
2026-04-23 12:22 25.24824 55.37995 30 ft 33 kts 302°
2026-04-23 12:22 25.25072 55.37548 32 ft 102 kts 301°
2026-04-23 12:23 25.25551 55.36686 29 ft 158 kts 301°
2026-04-23 12:23 25.26203 55.35523 162 ft 186 kts 303°
2026-04-23 12:23 25.26849 55.34314 756 ft 184 kts 305°
2026-04-23 12:23 25.27525 55.33102 1307 ft 184 kts 304°
2026-04-23 12:24 25.28208 55.31878 1856 ft 190 kts 303°
2026-04-23 12:24 25.28605 55.30476 2299 ft 199 kts 281°
2026-04-23 12:24 25.28819 55.28878 2546 ft 223 kts 280°
2026-04-23 12:24 25.29083 55.27086 2746 ft 250 kts 280°
2026-04-23 12:25 25.29385 55.25085 2958 ft 278 kts 282°
2026-04-23 12:25 25.29728 55.22875 3190 ft 305 kts 281°
2026-04-23 12:25 25.30106 55.20465 3394 ft 331 kts 281°
2026-04-23 12:25 25.30508 55.17920 3979 ft 340 kts 279°
2026-04-23 12:26 25.30918 55.15335 4757 ft 343 kts 278°
2026-04-23 12:26 25.31336 55.12715 5510 ft 347 kts 278°
2026-04-23 12:26 25.31758 55.10073 6243 ft 352 kts 278°
2026-04-23 12:26 25.32186 55.07402 6984 ft 354 kts 278°
2026-04-23 12:27 25.32616 55.04715 7755 ft 356 kts 278°
2026-04-23 12:27 25.33050 55.02006 8540 ft 358 kts 277°
2026-04-23 12:27 25.33486 54.99283 9304 ft 362 kts 277°
2026-04-23 12:27 25.33926 54.96529 10008 ft 365 kts 277°
2026-04-23 12:28 25.34370 54.93747 10699 ft 369 kts 277°
2026-04-23 12:28 25.34840 54.90938 11451 ft 374 kts 279°
2026-04-23 12:28 25.35554 54.88157 12316 ft 378 kts 285°
2026-04-23 12:28 25.36375 54.85381 13201 ft 382 kts 284°
2026-04-23 12:29 25.37196 54.82569 14031 ft 385 kts 284°
2026-04-23 12:29 25.38011 54.79744 14880 ft 386 kts 284°
2026-04-23 12:29 25.38813 54.76950 15711 ft 388 kts 284°
2026-04-23 12:29 25.39636 54.74068 16545 ft 390 kts 285°
2026-04-23 12:30 25.40460 54.71182 17331 ft 394 kts 285°
2026-04-23 12:30 25.41286 54.68318 18124 ft 397 kts 285°
2026-04-23 12:30 25.42132 54.65397 18806 ft 400 kts 285°
2026-04-23 12:30 25.42986 54.62444 19474 ft 404 kts 285°
2026-04-23 12:31 25.43850 54.59466 20123 ft 408 kts 285°
2026-04-23 12:31 25.44733 54.56464 20775 ft 412 kts 286°
2026-04-23 12:31 25.45627 54.53429 21429 ft 416 kts 286°
2026-04-23 12:31 25.46530 54.50364 22061 ft 420 kts 285°
2026-04-23 12:32 25.47436 54.47286 22707 ft 422 kts 286°
2026-04-23 12:32 25.48349 54.44175 23340 ft 426 kts 286°
2026-04-23 12:32 25.49265 54.41051 23840 ft 429 kts 286°
2026-04-23 12:32 25.50187 54.37901 24367 ft 431 kts 286°
2026-04-23 12:33 25.51114 54.34730 24916 ft 433 kts 286°
2026-04-23 12:33 25.52031 54.31594 25438 ft 435 kts 286°
2026-04-23 12:33 25.52963 54.28402 25948 ft 437 kts 286°
2026-04-23 12:33 25.53903 54.25181 26438 ft 440 kts 286°
2026-04-23 12:34 25.54848 54.21954 26924 ft 442 kts 287°
2026-04-23 12:34 25.55810 54.18706 27386 ft 445 kts 287°
2026-04-23 12:34 25.56778 54.15442 27847 ft 447 kts 287°
2026-04-23 12:34 25.57752 54.12152 28288 ft 450 kts 287°
2026-04-23 12:35 25.58728 54.08847 28709 ft 452 kts 287°
2026-04-23 12:35 25.59706 54.05518 29101 ft 455 kts 287°
2026-04-23 12:35 25.60665 54.02173 29484 ft 457 kts 286°
2026-04-23 12:35 25.61617 53.98805 29848 ft 459 kts 286°
2026-04-23 12:36 25.62567 53.95429 30191 ft 459 kts 286°
2026-04-23 12:36 25.63520 53.92054 30539 ft 460 kts 286°
2026-04-23 12:36 25.64477 53.88666 30920 ft 459 kts 286°
2026-04-23 12:36 25.65429 53.85299 31365 ft 457 kts 286°
2026-04-23 12:37 25.66378 53.81942 31819 ft 455 kts 286°
2026-04-23 12:37 25.67321 53.78603 32234 ft 453 kts 286°
2026-04-23 12:37 25.68260 53.75276 32615 ft 452 kts 286°
2026-04-23 12:37 25.69196 53.71954 33028 ft 450 kts 286°
2026-04-23 12:38 25.70116 53.68686 33452 ft 448 kts 286°
2026-04-23 12:38 25.71043 53.65385 33832 ft 447 kts 286°
2026-04-23 12:38 25.71966 53.62094 34158 ft 446 kts 286°
2026-04-23 12:38 25.72885 53.58817 34535 ft 443 kts 286°
2026-04-23 12:39 25.73796 53.55567 34935 ft 439 kts 286°
2026-04-23 12:39 25.74698 53.52341 35314 ft 437 kts 286°
2026-04-23 12:39 25.75597 53.49134 35648 ft 435 kts 286°
2026-04-23 12:39 25.76504 53.45923 35910 ft 435 kts 286°
2026-04-23 12:40 25.78327 53.39479 36049 ft 439 kts 286°
2026-04-23 12:40 25.80133 53.33077 36060 ft 434 kts 286°
2026-04-23 12:41 25.81930 53.26691 36067 ft 431 kts 286°
2026-04-23 12:41 25.83715 53.20339 36084 ft 430 kts 287°
2026-04-23 12:42 25.85955 53.14185 36101 ft 431 kts 292°
2026-04-23 12:42 25.88451 53.08122 36100 ft 432 kts 292°
2026-04-23 12:43 25.90920 53.02067 36091 ft 434 kts 292°
2026-04-23 12:43 25.93408 52.95930 35948 ft 434 kts 292°
2026-04-23 12:44 25.95879 52.89823 35869 ft 432 kts 292°
2026-04-23 12:44 25.98350 52.83704 35870 ft 435 kts 292°
2026-04-23 12:45 26.00833 52.77550 35867 ft 437 kts 292°
2026-04-23 12:45 26.03368 52.71458 35875 ft 438 kts 294°
2026-04-23 12:46 26.06142 52.65421 35860 ft 439 kts 295°
2026-04-23 12:46 26.08903 52.59367 35864 ft 439 kts 294°
2026-04-23 12:47 26.11635 52.53284 35873 ft 438 kts 294°
2026-04-23 12:47 26.14381 52.47218 35880 ft 437 kts 295°
2026-04-23 12:48 26.17099 52.41226 35870 ft 436 kts 294°
2026-04-23 12:48 26.19834 52.35179 35888 ft 436 kts 294°
2026-04-23 12:49 26.22555 52.29136 35888 ft 437 kts 294°
2026-04-23 12:49 26.25203 52.23029 35886 ft 438 kts 293°
2026-04-23 12:50 26.27840 52.16899 35868 ft 438 kts 293°
2026-04-23 12:50 26.30472 52.10809 35884 ft 439 kts 293°
2026-04-23 12:51 26.33119 52.04666 35882 ft 440 kts 293°
2026-04-23 12:51 26.35751 51.98500 35883 ft 440 kts 293°
2026-04-23 12:52 26.38248 51.92283 35871 ft 438 kts 288°
2026-04-23 12:52 26.40336 51.85902 35872 ft 438 kts 288°
2026-04-23 12:53 26.42473 51.79527 35887 ft 438 kts 289°
2026-04-23 12:53 26.44627 51.73172 35885 ft 437 kts 288°
2026-04-23 12:54 26.46767 51.66831 35885 ft 436 kts 288°
2026-04-23 12:54 26.48916 51.60486 35878 ft 436 kts 288°
2026-04-23 12:55 26.51003 51.54194 35883 ft 435 kts 288°
2026-04-23 12:55 26.53097 51.47863 35872 ft 434 kts 288°
2026-04-23 12:56 26.55190 51.41538 35892 ft 433 kts 288°
2026-04-23 12:56 26.57280 51.35220 35899 ft 433 kts 288°
2026-04-23 12:57 26.59361 51.28916 35894 ft 432 kts 288°
2026-04-23 12:57 26.61430 51.22657 35881 ft 432 kts 288°
2026-04-23 12:58 26.63507 51.16368 35887 ft 431 kts 288°
2026-04-23 12:58 26.65580 51.10080 35890 ft 430 kts 288°
2026-04-23 12:59 26.67651 51.03787 35893 ft 430 kts 288°
2026-04-23 12:59 26.69704 50.97496 35908 ft 430 kts 287°
2026-04-23 13:00 26.71712 50.91230 35911 ft 431 kts 287°
2026-04-23 13:00 26.73732 50.84918 35914 ft 431 kts 287°
2026-04-23 13:01 26.75753 50.78602 35912 ft 431 kts 287°
2026-04-23 13:01 26.77773 50.72286 35911 ft 431 kts 287°
2026-04-23 13:02 26.79746 50.67136 35909 ft 434 kts 295°
2026-04-23 13:02 26.82892 50.61340 35919 ft 437 kts 301°
2026-04-23 13:03 26.86718 50.56022 35918 ft 439 kts 305°
2026-04-23 13:03 26.90597 50.50765 35915 ft 437 kts 304°
2026-04-23 13:04 26.94646 50.45653 35923 ft 438 kts 308°
2026-04-23 13:04 26.98827 50.40728 35937 ft 438 kts 307°
2026-04-23 13:05 27.03010 50.35762 35920 ft 437 kts 307°
2026-04-23 13:05 27.07162 50.30790 35920 ft 436 kts 307°
2026-04-23 13:06 27.13353 50.23318 35933 ft 435 kts 307°
2026-04-23 13:07 27.17716 50.18614 35925 ft 442 kts 314°
2026-04-23 13:07 27.22701 50.14498 35932 ft 445 kts 316°
2026-04-23 13:08 27.27699 50.10394 35925 ft 444 kts 316°
2026-04-23 13:08 27.32667 50.06271 35937 ft 447 kts 316°
2026-04-23 13:09 27.37696 50.02063 35937 ft 453 kts 315°
2026-04-23 13:09 27.42685 49.97689 35933 ft 455 kts 314°
2026-04-23 13:10 27.47642 49.93300 35927 ft 456 kts 315°
2026-04-23 13:10 27.52645 49.88888 35927 ft 457 kts 315°
2026-04-23 13:11 27.57658 49.84475 35922 ft 457 kts 315°
2026-04-23 13:11 27.62663 49.80066 35927 ft 455 kts 314°
2026-04-23 13:12 27.67652 49.75663 35936 ft 455 kts 314°
2026-04-23 13:12 27.72648 49.71248 35929 ft 457 kts 314°
2026-04-23 13:13 27.77658 49.66815 35926 ft 459 kts 314°
2026-04-23 13:13 27.82675 49.62348 35926 ft 459 kts 314°
2026-04-23 13:14 27.87703 49.57847 35937 ft 461 kts 314°
2026-04-23 13:14 27.92732 49.53342 35928 ft 462 kts 314°
2026-04-23 13:15 27.97766 49.48830 35923 ft 461 kts 313°
2026-04-23 13:15 28.02770 49.44340 35944 ft 460 kts 313°
2026-04-23 13:16 28.07761 49.39813 35926 ft 459 kts 313°
2026-04-23 13:16 28.12723 49.35282 35925 ft 458 kts 313°
2026-04-23 13:17 28.17684 49.30751 35928 ft 457 kts 313°
2026-04-23 13:17 28.22646 49.26218 35935 ft 457 kts 313°
2026-04-23 13:18 28.27570 49.21714 35926 ft 457 kts 313°
2026-04-23 13:18 28.32509 49.17157 35929 ft 457 kts 313°
2026-04-23 13:19 28.37445 49.12595 35941 ft 458 kts 313°
2026-04-23 13:19 28.42580 49.08250 35940 ft 463 kts 317°
2026-04-23 13:20 28.47947 49.04187 35931 ft 464 kts 318°
2026-04-23 13:20 28.53317 49.00111 35950 ft 463 kts 317°
2026-04-23 13:21 28.58637 48.96040 35934 ft 463 kts 317°
2026-04-23 13:21 28.63972 48.91944 35932 ft 463 kts 317°
2026-04-23 13:22 28.69305 48.87845 35924 ft 462 kts 317°
2026-04-23 13:22 28.74638 48.83741 35928 ft 461 kts 317°
2026-04-23 13:23 28.79953 48.79648 35921 ft 460 kts 317°
2026-04-23 13:23 28.85277 48.75557 35925 ft 460 kts 317°
2026-04-23 13:24 28.90561 48.71506 35933 ft 460 kts 316°
2026-04-23 13:24 28.95880 48.67420 35932 ft 460 kts 316°
2026-04-23 13:25 29.01187 48.63336 35917 ft 460 kts 316°
2026-04-23 13:25 29.06465 48.59268 35929 ft 460 kts 316°
2026-04-23 13:26 29.11780 48.55166 35929 ft 460 kts 316°
2026-04-23 13:26 29.17100 48.51056 35926 ft 461 kts 316°
2026-04-23 13:27 29.22411 48.46948 35946 ft 461 kts 316°
2026-04-23 13:27 29.27704 48.42847 35925 ft 461 kts 316°
2026-04-23 13:28 29.33021 48.38724 35923 ft 461 kts 316°
2026-04-23 13:28 29.38327 48.34603 35946 ft 460 kts 316°
2026-04-23 13:29 29.43637 48.30495 35924 ft 461 kts 317°
2026-04-23 13:29 29.49211 48.26752 35921 ft 465 kts 321°
2026-04-23 13:30 29.54846 48.23094 35954 ft 465 kts 320°
2026-04-23 13:30 29.60432 48.19442 35924 ft 465 kts 320°
2026-04-23 13:31 29.66051 48.15743 35917 ft 464 kts 320°
2026-04-23 13:31 29.71654 48.12044 35919 ft 464 kts 320°
2026-04-23 13:32 29.77260 48.08339 35920 ft 464 kts 320°
2026-04-23 13:32 29.82869 48.04629 35920 ft 464 kts 320°
2026-04-23 13:33 29.88428 48.00945 35904 ft 464 kts 320°
2026-04-23 13:33 29.94024 47.97234 35919 ft 464 kts 320°
2026-04-23 13:34 29.99531 47.93412 35912 ft 456 kts 315°
2026-04-23 13:34 30.04338 47.88795 35921 ft 445 kts 307°
2026-04-23 13:35 30.08478 47.83554 35929 ft 439 kts 302°
2026-04-23 13:35 30.12431 47.78223 35922 ft 439 kts 302°
2026-04-23 13:36 30.16416 47.72863 35916 ft 440 kts 302°
2026-04-23 13:36 30.20411 47.67512 35934 ft 440 kts 303°
2026-04-23 13:37 30.24419 47.62147 35928 ft 440 kts 303°
2026-04-23 13:37 30.28423 47.56782 35934 ft 441 kts 303°
2026-04-23 13:38 30.32429 47.51407 35929 ft 441 kts 303°
2026-04-23 13:38 30.36408 47.46057 35940 ft 442 kts 303°
2026-04-23 13:39 30.40422 47.40654 35930 ft 443 kts 303°
2026-04-23 13:39 30.44441 47.35238 35928 ft 442 kts 303°
2026-04-23 13:40 30.48456 47.29817 35919 ft 443 kts 303°
2026-04-23 13:40 30.52474 47.24388 35915 ft 443 kts 303°
2026-04-23 13:41 30.56037 47.18701 35937 ft 434 kts 294°
2026-04-23 13:41 30.58824 47.12546 35914 ft 427 kts 287°
2026-04-23 13:42 30.61051 47.06150 35916 ft 426 kts 286°
2026-04-23 13:42 30.63239 46.99749 35916 ft 426 kts 286°
2026-04-23 13:43 30.65432 46.93362 35918 ft 425 kts 286°
2026-04-23 13:43 30.67628 46.86990 35916 ft 424 kts 286°
2026-04-23 13:44 30.69819 46.80633 35924 ft 425 kts 287°
2026-04-23 13:44 30.72019 46.74241 35922 ft 426 kts 287°
2026-04-23 13:45 30.73848 46.68918 35919 ft 427 kts 286°
2026-04-23 13:45 30.76408 46.61453 35919 ft 428 kts 286°
2026-04-23 13:46 30.78612 46.55014 35933 ft 429 kts 287°
2026-04-23 13:46 30.80817 46.48559 35923 ft 429 kts 286°
2026-04-23 13:47 30.83022 46.42094 35920 ft 429 kts 286°
2026-04-23 13:47 30.85220 46.35634 35915 ft 429 kts 286°
2026-04-23 13:48 30.87411 46.29186 35937 ft 428 kts 286°
2026-04-23 13:48 30.89587 46.22765 35928 ft 429 kts 286°
2026-04-23 13:49 30.91775 46.16299 35910 ft 429 kts 286°
2026-04-23 13:49 30.93955 46.09842 35921 ft 428 kts 286°
2026-04-23 13:50 30.96130 46.03389 35952 ft 428 kts 286°
2026-04-23 13:50 30.98307 45.96916 35921 ft 429 kts 286°
2026-04-23 13:51 31.00117 45.91526 35927 ft 429 kts 286°
2026-04-23 13:51 31.02291 45.85040 35913 ft 429 kts 286°
2026-04-23 13:52 31.04451 45.78584 35914 ft 429 kts 286°
2026-04-23 13:52 31.06618 45.72093 35931 ft 430 kts 286°
2026-04-23 13:53 31.08789 45.65577 35921 ft 431 kts 286°
2026-04-23 13:53 31.10957 45.59057 35926 ft 431 kts 286°
2026-04-23 13:54 31.13111 45.52570 35919 ft 431 kts 286°
2026-04-23 13:54 31.15273 45.46042 35919 ft 431 kts 286°
2026-04-23 13:55 31.17434 45.39506 35921 ft 432 kts 286°
2026-04-23 13:55 31.19597 45.32952 35933 ft 432 kts 286°
2026-04-23 13:56 31.21756 45.26394 35921 ft 432 kts 286°
2026-04-23 13:56 31.23920 45.19810 35925 ft 434 kts 286°
2026-04-23 13:57 31.26081 45.13221 35919 ft 434 kts 286°
2026-04-23 13:57 31.28224 45.06675 35916 ft 434 kts 286°
2026-04-23 13:58 31.30379 45.00078 35919 ft 434 kts 286°
2026-04-23 13:58 31.32529 44.93481 35918 ft 434 kts 286°
2026-04-23 13:59 31.34678 44.86876 35918 ft 435 kts 286°
2026-04-23 13:59 31.36825 44.80263 35915 ft 435 kts 286°
2026-04-23 14:00 31.38609 44.74761 35914 ft 435 kts 285°
2026-04-23 14:00 31.41113 44.67016 35918 ft 434 kts 285°
2026-04-23 14:01 31.43237 44.60436 35931 ft 435 kts 285°
2026-04-23 14:01 31.45372 44.53804 35919 ft 435 kts 285°
2026-04-23 14:02 31.47506 44.47163 35918 ft 435 kts 285°
2026-04-23 14:02 31.49640 44.40507 35929 ft 436 kts 285°
2026-04-23 14:03 31.51733 44.33852 35922 ft 435 kts 284°
2026-04-23 14:03 31.53842 44.27239 35920 ft 435 kts 284°
2026-04-23 14:04 31.55949 44.20578 35934 ft 436 kts 284°
2026-04-23 14:04 31.58060 44.13913 35924 ft 436 kts 284°
2026-04-23 14:05 31.60177 44.07243 35922 ft 436 kts 284°
2026-04-23 14:05 31.62291 44.00574 35937 ft 436 kts 284°
2026-04-23 14:06 31.64389 43.93939 35923 ft 436 kts 284°
2026-04-23 14:06 31.66499 43.87256 35923 ft 436 kts 284°
2026-04-23 14:07 31.68604 43.80574 35938 ft 436 kts 284°
2026-04-23 14:07 31.71752 43.70552 35924 ft 436 kts 284°
2026-04-23 14:08 31.73849 43.63866 35922 ft 436 kts 284°
2026-04-23 14:08 31.75945 43.57168 35925 ft 437 kts 284°
2026-04-23 14:09 31.78026 43.50512 35923 ft 437 kts 284°
2026-04-23 14:09 31.80121 43.43804 35924 ft 437 kts 284°
2026-04-23 14:10 31.82216 43.37097 35929 ft 437 kts 284°
2026-04-23 14:10 31.84298 43.30359 35924 ft 438 kts 284°
2026-04-23 14:11 31.86357 43.23618 35922 ft 437 kts 284°
2026-04-23 14:11 31.88417 43.16891 35919 ft 438 kts 284°
2026-04-23 14:12 31.90485 43.10157 35923 ft 438 kts 284°
2026-04-23 14:12 31.92544 43.03453 35919 ft 438 kts 284°
2026-04-23 14:13 31.94610 42.96709 35927 ft 438 kts 284°
2026-04-23 14:13 31.96672 42.89967 35921 ft 438 kts 284°
2026-04-23 14:14 31.98734 42.83210 35917 ft 438 kts 284°
2026-04-23 14:14 32.00790 42.76461 35922 ft 437 kts 284°
2026-04-23 14:15 32.02841 42.69715 35921 ft 437 kts 284°
2026-04-23 14:15 32.04892 42.62963 35917 ft 437 kts 284°
2026-04-23 14:16 32.06943 42.56213 35918 ft 437 kts 284°
2026-04-23 14:16 32.08987 42.49451 35914 ft 438 kts 284°
2026-04-23 14:17 32.11871 42.43214 35927 ft 449 kts 304°
2026-04-23 14:17 32.14136 42.40604 35927 ft 460 kts 312°
2026-04-23 14:17 32.16819 42.38480 35889 ft 474 kts 326°
2026-04-23 14:18 32.22934 42.35349 35931 ft 482 kts 328°
2026-04-23 14:18 32.29146 42.32284 35919 ft 485 kts 328°
2026-04-23 14:19 32.35372 42.29155 35908 ft 486 kts 328°
2026-04-23 14:19 32.41586 42.25978 35903 ft 487 kts 328°
2026-04-23 14:20 32.47794 42.22786 35901 ft 486 kts 328°
2026-04-23 14:20 32.53991 42.19596 35907 ft 484 kts 328°
2026-04-23 14:21 32.60162 42.16415 35905 ft 483 kts 328°
2026-04-23 14:21 32.66320 42.13237 35899 ft 482 kts 328°
2026-04-23 14:22 32.72422 42.10084 35899 ft 481 kts 328°
2026-04-23 14:22 32.78575 42.06899 35905 ft 481 kts 328°
2026-04-23 14:23 32.84711 42.03718 35896 ft 481 kts 328°
2026-04-23 14:23 32.90869 42.00523 35894 ft 482 kts 328°
2026-04-23 14:24 32.97018 41.97328 35899 ft 482 kts 328°
2026-04-23 14:24 33.03172 41.94126 35897 ft 483 kts 328°
2026-04-23 14:25 33.09325 41.90922 35890 ft 483 kts 328°
2026-04-23 14:25 33.15452 41.87727 35879 ft 483 kts 328°
2026-04-23 14:26 33.21607 41.84518 35881 ft 483 kts 328°
2026-04-23 14:26 33.27772 41.81304 35888 ft 483 kts 328°
2026-04-23 14:27 33.33749 41.77770 35881 ft 468 kts 314°
2026-04-23 14:27 33.35962 41.75032 35882 ft 452 kts 297°
2026-04-23 14:27 33.37485 41.71788 35886 ft 444 kts 288°
2026-04-23 14:28 33.38909 41.64797 35866 ft 429 kts 269°
2026-04-23 14:28 33.39096 41.57642 35870 ft 432 kts 268°
2026-04-23 14:29 33.39297 41.50427 35871 ft 435 kts 269°
2026-04-23 14:29 33.39554 41.43165 35863 ft 437 kts 269°
2026-04-23 14:30 33.39836 41.35887 35870 ft 439 kts 269°
2026-04-23 14:30 33.40118 41.28614 35868 ft 439 kts 269°
2026-04-23 14:31 33.40398 41.21311 35860 ft 439 kts 269°
2026-04-23 14:31 33.40671 41.14004 35861 ft 438 kts 269°
2026-04-23 14:32 33.40939 41.06722 35856 ft 437 kts 269°
2026-04-23 14:32 33.41200 40.99507 35854 ft 436 kts 269°
2026-04-23 14:33 33.41458 40.92253 35840 ft 435 kts 269°
2026-04-23 14:33 33.41712 40.85009 35860 ft 435 kts 269°
2026-04-23 14:34 33.41968 40.77767 35849 ft 434 kts 270°
2026-04-23 14:34 33.42882 40.70635 35845 ft 440 kts 280°
2026-04-23 14:35 33.44467 40.63545 35850 ft 441 kts 280°
2026-04-23 14:35 33.46029 40.56440 35854 ft 442 kts 280°
2026-04-23 14:36 33.47595 40.49304 35849 ft 442 kts 280°
2026-04-23 14:36 33.49159 40.42174 35846 ft 443 kts 280°
2026-04-23 14:37 33.50710 40.35082 35843 ft 443 kts 280°
2026-04-23 14:37 33.52267 40.27936 35846 ft 443 kts 280°
2026-04-23 14:38 33.53568 40.21949 35854 ft 443 kts 280°
2026-04-23 14:38 33.55109 40.14840 35850 ft 443 kts 280°
2026-04-23 14:39 33.56660 40.07668 35845 ft 443 kts 280°
2026-04-23 14:39 33.58200 40.00520 35860 ft 443 kts 280°
2026-04-23 14:40 33.59739 39.93357 35837 ft 443 kts 279°
2026-04-23 14:40 33.61261 39.86251 35858 ft 442 kts 279°
2026-04-23 14:41 33.62788 39.79099 35871 ft 442 kts 279°
2026-04-23 14:41 33.64310 39.71950 35854 ft 442 kts 279°
2026-04-23 14:42 33.65829 39.64794 35851 ft 442 kts 279°
2026-04-23 14:42 33.67347 39.57619 35871 ft 441 kts 279°
2026-04-23 14:43 33.68854 39.50474 35855 ft 441 kts 279°
2026-04-23 14:43 33.70356 39.43332 35849 ft 441 kts 279°
2026-04-23 14:44 33.71841 39.36246 35846 ft 440 kts 279°
2026-04-23 14:44 33.73334 39.29102 35850 ft 440 kts 279°
2026-04-23 14:45 33.74821 39.21965 35845 ft 440 kts 279°
2026-04-23 14:45 33.76305 39.14820 35847 ft 440 kts 279°
2026-04-23 14:46 33.77783 39.07683 35856 ft 440 kts 279°
2026-04-23 14:46 33.79257 39.00539 35844 ft 440 kts 279°
2026-04-23 14:47 33.82596 38.84227 35849 ft 440 kts 279°
2026-04-23 14:47 33.84224 38.76291 35848 ft 439 kts 279°
2026-04-23 14:48 33.85685 38.69137 35842 ft 439 kts 279°
2026-04-23 14:48 33.87136 38.61991 35847 ft 439 kts 279°
2026-04-23 14:49 33.88579 38.54850 35839 ft 439 kts 279°
2026-04-23 14:49 33.90018 38.47711 35843 ft 439 kts 279°
2026-04-23 14:50 33.91453 38.40572 35842 ft 438 kts 279°
2026-04-23 14:50 33.92876 38.33470 35838 ft 439 kts 279°
2026-04-23 14:51 33.94302 38.26328 35840 ft 438 kts 279°
2026-04-23 14:51 33.95725 38.19184 35843 ft 439 kts 279°
2026-04-23 14:52 33.97143 38.12034 35848 ft 439 kts 279°
2026-04-23 14:52 33.98558 38.04882 35840 ft 438 kts 279°
2026-04-23 14:53 33.99967 37.97737 35845 ft 438 kts 279°
2026-04-23 14:53 34.01371 37.90591 35844 ft 438 kts 279°
2026-04-23 14:54 34.02770 37.83448 35846 ft 437 kts 278°
2026-04-23 14:54 34.04155 37.76353 35858 ft 437 kts 278°
2026-04-23 14:55 34.05544 37.69212 35856 ft 437 kts 278°
2026-04-23 14:55 34.06928 37.62078 35851 ft 437 kts 278°
2026-04-23 14:56 34.08310 37.54933 35849 ft 437 kts 278°
2026-04-23 14:56 34.09685 37.47801 35849 ft 436 kts 278°
2026-04-23 14:57 34.11056 37.40658 35860 ft 437 kts 278°
2026-04-23 14:57 34.12425 37.33510 35862 ft 437 kts 278°
2026-04-23 14:58 34.13791 37.26354 35870 ft 437 kts 278°
2026-04-23 14:58 34.15152 37.19195 35864 ft 438 kts 278°
2026-04-23 14:59 34.16504 37.12065 35872 ft 438 kts 278°
2026-04-23 14:59 34.17862 37.04884 35874 ft 438 kts 278°
2026-04-23 15:00 34.19215 36.97706 35893 ft 438 kts 278°
2026-04-23 15:00 34.20566 36.90517 35888 ft 439 kts 278°
2026-04-23 15:01 34.21916 36.83318 35891 ft 440 kts 278°
2026-04-23 15:01 34.23267 36.76103 35888 ft 440 kts 278°
2026-04-23 15:02 34.24621 36.68879 35895 ft 440 kts 278°
2026-04-23 15:02 34.25958 36.61650 35900 ft 441 kts 278°
2026-04-23 15:03 34.26793 36.54346 35913 ft 436 kts 269°
2026-04-23 15:03 34.27010 36.47049 35906 ft 437 kts 269°
2026-04-23 15:04 34.27249 36.39695 35891 ft 439 kts 270°
2026-04-23 15:04 34.27516 36.32302 35911 ft 440 kts 270°
2026-04-23 15:05 34.27789 36.24902 35940 ft 440 kts 270°
2026-04-23 15:05 34.28057 36.17548 35931 ft 440 kts 270°
2026-04-23 15:06 34.28541 36.10166 35916 ft 441 kts 276°
2026-04-23 15:06 34.29881 36.02928 35922 ft 442 kts 279°
2026-04-23 15:07 34.31272 35.95674 35922 ft 442 kts 279°
2026-04-23 15:07 34.32653 35.88419 35933 ft 442 kts 279°
2026-04-23 15:08 34.34017 35.81209 35931 ft 442 kts 279°
2026-04-23 15:09 34.36067 35.70343 35930 ft 442 kts 279°
2026-04-23 15:09 34.37428 35.63097 35926 ft 441 kts 279°
2026-04-23 15:10 34.38557 35.57071 35922 ft 441 kts 279°
2026-04-23 15:10 34.40135 35.48616 35938 ft 440 kts 279°
2026-04-23 15:11 34.41482 35.41377 35927 ft 440 kts 279°
2026-04-23 15:11 34.42816 35.34189 35921 ft 440 kts 279°
2026-04-23 15:12 34.44156 35.26949 35899 ft 440 kts 279°
2026-04-23 15:12 34.45495 35.19710 35920 ft 440 kts 279°
2026-04-23 15:13 34.46834 35.12470 35919 ft 440 kts 279°
2026-04-23 15:13 34.48190 35.05238 35909 ft 441 kts 282°
2026-04-23 15:14 34.50158 34.98160 35934 ft 443 kts 285°
2026-04-23 15:14 34.52193 34.91174 35921 ft 443 kts 285°
2026-04-23 15:15 34.54242 34.84128 35915 ft 443 kts 285°
2026-04-23 15:15 34.56288 34.77083 35918 ft 443 kts 285°
2026-04-23 15:16 34.58328 34.70039 35920 ft 442 kts 285°
2026-04-23 15:16 34.60366 34.62988 35902 ft 442 kts 285°
2026-04-23 15:17 34.62399 34.55933 35914 ft 442 kts 285°
2026-04-23 15:17 34.64427 34.48881 35910 ft 442 kts 285°
2026-04-23 15:18 34.66435 34.41877 35907 ft 442 kts 285°
2026-04-23 15:18 34.68452 34.34829 35909 ft 441 kts 285°
2026-04-23 15:19 34.70463 34.27783 35920 ft 441 kts 285°
2026-04-23 15:19 34.72470 34.20728 35928 ft 441 kts 285°
2026-04-23 15:20 34.74134 34.14871 35904 ft 441 kts 285°
2026-04-23 15:20 34.76455 34.06678 35901 ft 440 kts 285°
2026-04-23 15:21 34.78442 33.99644 35902 ft 439 kts 285°
2026-04-23 15:21 34.80426 33.92604 35909 ft 439 kts 285°
2026-04-23 15:22 34.82405 33.85565 35900 ft 439 kts 285°
2026-04-23 15:22 34.84379 33.78522 35901 ft 439 kts 285°
2026-04-23 15:23 34.86345 33.71492 35913 ft 439 kts 285°
2026-04-23 15:23 34.88311 33.64447 35916 ft 439 kts 285°
2026-04-23 15:24 34.90261 33.57436 35912 ft 439 kts 285°
2026-04-23 15:24 34.92219 33.50383 35913 ft 440 kts 285°
2026-04-23 15:25 34.94172 33.43330 35908 ft 439 kts 285°
2026-04-23 15:25 34.95795 33.37456 35909 ft 440 kts 285°
2026-04-23 15:26 34.97745 33.30375 35915 ft 440 kts 285°
2026-04-23 15:26 34.99691 33.23291 35915 ft 440 kts 285°
2026-04-23 15:27 35.01636 33.16199 35913 ft 441 kts 285°
2026-04-23 15:27 35.03575 33.09109 35913 ft 440 kts 285°
2026-04-23 15:28 35.05510 33.02012 35915 ft 440 kts 284°
2026-04-23 15:28 35.07439 32.94921 35917 ft 440 kts 284°
2026-04-23 15:29 35.09350 32.87876 35936 ft 439 kts 284°
2026-04-23 15:29 35.11270 32.80780 35916 ft 439 kts 284°
2026-04-23 15:30 35.13179 32.73706 35913 ft 438 kts 284°
2026-04-23 15:30 35.15078 32.66654 35921 ft 436 kts 284°
2026-04-23 15:31 35.16967 32.59612 35930 ft 436 kts 284°
2026-04-23 15:31 35.18858 32.52551 35910 ft 436 kts 284°
2026-04-23 15:32 35.20728 32.45548 35910 ft 436 kts 284°
2026-04-23 15:32 35.22605 32.38500 35909 ft 436 kts 284°
2026-04-23 15:33 35.24480 32.31443 35921 ft 436 kts 284°
2026-04-23 15:33 35.27392 32.20424 35893 ft 435 kts 284°
2026-04-23 15:34 35.29252 32.13381 35907 ft 434 kts 284°
2026-04-23 15:34 35.31108 32.06345 35925 ft 434 kts 284°
2026-04-23 15:35 35.32954 31.99312 35908 ft 434 kts 284°
2026-04-23 15:35 35.34797 31.92271 35901 ft 433 kts 283°
2026-04-23 15:36 35.36620 31.85286 35903 ft 433 kts 283°
2026-04-23 15:36 35.38450 31.78258 35920 ft 433 kts 283°
2026-04-23 15:37 35.40276 31.71225 35897 ft 432 kts 283°
2026-04-23 15:37 35.42096 31.64199 35901 ft 432 kts 283°
2026-04-23 15:38 35.43911 31.57173 35901 ft 432 kts 283°
2026-04-23 15:38 35.45723 31.50134 35906 ft 432 kts 283°
2026-04-23 15:39 35.47519 31.43145 35899 ft 432 kts 283°
2026-04-23 15:39 35.49322 31.36107 35896 ft 432 kts 283°
2026-04-23 15:40 35.51119 31.29076 35898 ft 432 kts 283°
2026-04-23 15:40 35.52914 31.22033 35892 ft 432 kts 283°
2026-04-23 15:41 35.54705 31.14986 35895 ft 432 kts 283°
2026-04-23 15:41 35.56495 31.07922 35892 ft 432 kts 283°
2026-04-23 15:42 35.58281 31.00859 35890 ft 432 kts 283°
2026-04-23 15:42 35.60059 30.93804 35898 ft 433 kts 283°
2026-04-23 15:43 35.61826 30.86778 35891 ft 433 kts 283°
2026-04-23 15:43 35.63600 30.79702 35891 ft 433 kts 283°
2026-04-23 15:44 35.65369 30.72628 35885 ft 433 kts 283°
2026-04-23 15:44 35.67135 30.65547 35885 ft 433 kts 283°
2026-04-23 15:45 35.68896 30.58466 35881 ft 433 kts 283°
2026-04-23 15:45 35.70652 30.51388 35883 ft 433 kts 283°
2026-04-23 15:46 35.72405 30.44301 35882 ft 432 kts 283°
2026-04-23 15:46 35.74142 30.37265 35891 ft 433 kts 283°
2026-04-23 15:47 35.75888 30.30171 35880 ft 433 kts 283°
2026-04-23 15:47 35.77632 30.23076 35883 ft 433 kts 283°
2026-04-23 15:48 35.79372 30.15980 35881 ft 433 kts 283°
2026-04-23 15:48 35.81106 30.08915 35895 ft 433 kts 283°
2026-04-23 15:49 35.82837 30.01814 35882 ft 433 kts 282°
2026-04-23 15:49 35.84646 29.94738 35877 ft 433 kts 284°
2026-04-23 15:50 35.86589 29.87702 35880 ft 433 kts 284°
2026-04-23 15:50 35.88530 29.80677 35875 ft 433 kts 284°
2026-04-23 15:51 35.90463 29.73607 35877 ft 434 kts 284°
2026-04-23 15:51 35.92387 29.66550 35880 ft 434 kts 284°
2026-04-23 15:52 35.94309 29.59497 35882 ft 434 kts 284°
2026-04-23 15:52 35.96205 29.52455 35891 ft 434 kts 284°
2026-04-23 15:53 35.98088 29.45363 35884 ft 436 kts 284°
2026-04-23 15:53 35.99984 29.38242 35885 ft 436 kts 284°
2026-04-23 15:54 36.01888 29.31118 35885 ft 437 kts 284°
2026-04-23 15:54 36.03795 29.23978 35898 ft 437 kts 284°
2026-04-23 15:55 36.05683 29.16889 35887 ft 437 kts 284°
2026-04-23 15:55 36.07581 29.09743 35885 ft 437 kts 284°
2026-04-23 15:56 36.09475 29.02592 35886 ft 437 kts 284°
2026-04-23 15:56 36.11365 28.95440 35899 ft 437 kts 284°
2026-04-23 15:57 36.13246 28.88302 35888 ft 436 kts 284°
2026-04-23 15:57 36.15122 28.81167 35883 ft 435 kts 284°
2026-04-23 15:58 36.16992 28.74039 35882 ft 435 kts 284°
2026-04-23 15:58 36.18857 28.66917 35882 ft 434 kts 284°
2026-04-23 15:59 36.20722 28.59798 35880 ft 434 kts 284°
2026-04-23 15:59 36.22566 28.52736 35891 ft 433 kts 284°
2026-04-23 16:00 36.24396 28.45630 35890 ft 433 kts 284°
2026-04-23 16:00 36.26210 28.38514 35890 ft 432 kts 284°
2026-04-23 16:01 36.28032 28.31408 35885 ft 432 kts 284°
2026-04-23 16:01 36.29847 28.24346 35879 ft 432 kts 284°
2026-04-23 16:02 36.31674 28.17246 35879 ft 431 kts 284°
2026-04-23 16:02 36.33480 28.10155 35883 ft 430 kts 284°
2026-04-23 16:03 36.35728 28.03246 35902 ft 433 kts 289°
2026-04-23 16:03 36.38198 27.96409 35886 ft 434 kts 289°
2026-04-23 16:04 36.40649 27.89604 35884 ft 435 kts 289°
2026-04-23 16:04 36.43114 27.82757 35885 ft 435 kts 289°
2026-04-23 16:05 36.45185 27.76998 35889 ft 435 kts 289°
2026-04-23 16:05 36.48025 27.69006 35891 ft 435 kts 289°
2026-04-23 16:06 36.50447 27.62120 35891 ft 435 kts 289°
2026-04-23 16:06 36.52880 27.55227 35897 ft 435 kts 289°
2026-04-23 16:07 36.55313 27.48343 35901 ft 435 kts 289°
2026-04-23 16:07 36.57746 27.41451 35911 ft 435 kts 289°
2026-04-23 16:08 36.60163 27.34593 35911 ft 437 kts 289°
2026-04-23 16:08 36.62618 27.27615 35913 ft 443 kts 289°
2026-04-23 16:09 36.65101 27.20566 35920 ft 445 kts 289°
2026-04-23 16:09 36.67579 27.13480 35919 ft 446 kts 289°
2026-04-23 16:10 36.70034 27.06378 35912 ft 445 kts 289°
2026-04-23 16:10 36.72474 26.99290 35910 ft 444 kts 289°
2026-04-23 16:11 36.74896 26.92278 35917 ft 442 kts 289°
2026-04-23 16:11 36.76918 26.86426 35921 ft 441 kts 289°
2026-04-23 16:12 36.79747 26.78225 35917 ft 439 kts 288°
2026-04-23 16:12 36.81752 26.72398 35920 ft 439 kts 288°
2026-04-23 16:13 36.84155 26.65399 35923 ft 439 kts 288°
2026-04-23 16:13 36.87758 26.54881 35938 ft 439 kts 288°
2026-04-23 16:14 36.90159 26.47857 35926 ft 440 kts 288°
2026-04-23 16:14 36.92545 26.40865 35926 ft 440 kts 288°
2026-04-23 16:15 36.94950 26.33820 35934 ft 440 kts 288°
2026-04-23 16:15 36.97347 26.26764 35938 ft 440 kts 288°
2026-04-23 16:16 36.99726 26.19705 35940 ft 441 kts 288°
2026-04-23 16:16 37.02093 26.12673 35941 ft 441 kts 288°
2026-04-23 16:17 37.04484 26.05596 35945 ft 441 kts 288°
2026-04-23 16:17 37.06874 25.98521 35947 ft 442 kts 288°
2026-04-23 16:18 37.09265 25.91432 35953 ft 442 kts 288°
2026-04-23 16:18 37.11651 25.84342 35950 ft 442 kts 288°
2026-04-23 16:19 37.14033 25.77250 35951 ft 441 kts 288°
2026-04-23 16:19 37.16412 25.70152 35958 ft 441 kts 288°
2026-04-23 16:20 37.18789 25.63053 35976 ft 441 kts 288°
2026-04-23 16:20 37.21141 25.56035 35717 ft 426 kts 288°
2026-04-23 16:21 37.22266 25.52650 35266 ft 417 kts 287°
2026-04-23 16:21 37.23373 25.49291 34576 ft 415 kts 287°
2026-04-23 16:21 37.24450 25.45973 34298 ft 406 kts 287°
2026-04-23 16:21 37.25515 25.42679 34093 ft 407 kts 287°
2026-04-23 16:22 37.26568 25.39416 33645 ft 400 kts 287°
2026-04-23 16:22 37.27605 25.36173 32724 ft 401 kts 285°
2026-04-23 16:22 37.28568 25.32860 31490 ft 409 kts 284°
2026-04-23 16:22 37.29532 25.29461 30427 ft 415 kts 284°
2026-04-23 16:23 37.30498 25.26036 29103 ft 417 kts 285°
2026-04-23 16:23 37.31451 25.22604 27047 ft 419 kts 285°
2026-04-23 16:23 37.32406 25.19067 24803 ft 435 kts 285°
2026-04-23 16:23 37.33336 25.15512 23095 ft 432 kts 285°
2026-04-23 16:24 37.34238 25.11981 21963 ft 414 kts 285°
2026-04-23 16:24 37.35093 25.08604 21244 ft 404 kts 284°
2026-04-23 16:24 37.35945 25.05224 20657 ft 405 kts 284°
2026-04-23 16:24 37.36780 25.01908 20365 ft 392 kts 284°
2026-04-23 16:25 37.37594 24.98690 20077 ft 381 kts 284°
2026-04-23 16:25 37.38385 24.95545 19781 ft 372 kts 284°
2026-04-23 16:25 37.39160 24.92459 19393 ft 367 kts 285°
2026-04-23 16:25 37.39922 24.89399 18934 ft 366 kts 284°
2026-04-23 16:26 37.40679 24.86348 18416 ft 366 kts 284°
2026-04-23 16:26 37.41433 24.83295 17888 ft 365 kts 284°
2026-04-23 16:26 37.42180 24.80257 17357 ft 363 kts 284°
2026-04-23 16:26 37.42922 24.77221 16819 ft 362 kts 284°
2026-04-23 16:27 37.43667 24.74155 16431 ft 369 kts 284°
2026-04-23 16:27 37.44421 24.71037 16328 ft 374 kts 284°
2026-04-23 16:27 37.45176 24.67898 16054 ft 377 kts 284°
2026-04-23 16:27 37.45915 24.64810 15349 ft 373 kts 284°
2026-04-23 16:28 37.46661 24.61675 14619 ft 373 kts 284°
2026-04-23 16:28 37.47398 24.58558 14033 ft 370 kts 284°
2026-04-23 16:28 37.48123 24.55475 13455 ft 365 kts 284°
2026-04-23 16:28 37.48831 24.52421 12845 ft 362 kts 284°
2026-04-23 16:29 37.49521 24.49406 12618 ft 354 kts 284°
2026-04-23 16:29 37.50181 24.46521 12478 ft 332 kts 284°
2026-04-23 16:29 37.50809 24.43783 12400 ft 322 kts 284°
2026-04-23 16:29 37.51426 24.41100 12309 ft 315 kts 284°
2026-04-23 16:30 37.52027 24.38486 11971 ft 308 kts 284°
2026-04-23 16:30 37.52615 24.35899 11514 ft 307 kts 284°
2026-04-23 16:30 37.53196 24.33311 11028 ft 308 kts 284°
2026-04-23 16:30 37.53770 24.30705 10487 ft 310 kts 284°
2026-04-23 16:31 37.54344 24.28068 9964 ft 312 kts 284°
2026-04-23 16:31 37.54899 24.25463 9544 ft 307 kts 284°
2026-04-23 16:31 37.55446 24.22876 9153 ft 301 kts 284°
2026-04-23 16:31 37.55967 24.20389 8854 ft 285 kts 284°
2026-04-23 16:32 37.56451 24.18026 8560 ft 275 kts 284°
2026-04-23 16:32 37.56914 24.15744 8337 ft 269 kts 284°
2026-04-23 16:32 37.57378 24.13462 7987 ft 268 kts 284°
2026-04-23 16:32 37.57835 24.11181 7600 ft 269 kts 285°
2026-04-23 16:33 37.58269 24.08912 7336 ft 265 kts 284°
2026-04-23 16:33 37.58684 24.06659 7013 ft 264 kts 284°
2026-04-23 16:33 37.59100 24.04395 6582 ft 267 kts 283°
2026-04-23 16:33 37.59521 24.02105 6188 ft 268 kts 284°
2026-04-23 16:34 37.59949 23.99814 5813 ft 266 kts 284°
2026-04-23 16:34 37.60363 23.97574 5687 ft 257 kts 284°
2026-04-23 16:34 37.60748 23.95404 5492 ft 249 kts 283°
2026-04-23 16:34 37.61146 23.93291 5269 ft 244 kts 284°
2026-04-23 16:35 37.61536 23.91236 5073 ft 238 kts 284°
2026-04-23 16:35 37.61892 23.89243 5005 ft 227 kts 284°
2026-04-23 16:35 37.62232 23.87327 5000 ft 226 kts 281°
2026-04-23 16:35 37.62416 23.85351 4976 ft 226 kts 275°
2026-04-23 16:36 37.62512 23.83411 4981 ft 221 kts 275°
2026-04-23 16:36 37.62583 23.81474 4980 ft 220 kts 274°
2026-04-23 16:36 37.62665 23.79544 4977 ft 220 kts 274°
2026-04-23 16:36 37.62738 23.77613 4983 ft 219 kts 274°
2026-04-23 16:37 37.62806 23.75681 4986 ft 221 kts 275°
2026-04-23 16:37 37.62869 23.73742 4980 ft 222 kts 274°
2026-04-23 16:37 37.62974 23.71787 4989 ft 224 kts 274°
2026-04-23 16:37 37.63089 23.69818 4990 ft 226 kts 274°
2026-04-23 16:38 37.63207 23.67831 4992 ft 228 kts 274°
2026-04-23 16:38 37.63324 23.65832 4989 ft 229 kts 274°
2026-04-23 16:38 37.63440 23.63828 4983 ft 228 kts 274°
2026-04-23 16:38 37.63555 23.61836 4986 ft 227 kts 274°
2026-04-23 16:39 37.63669 23.59849 4980 ft 226 kts 274°
2026-04-23 16:39 37.63829 23.57898 4961 ft 218 kts 287°
2026-04-23 16:39 37.64570 23.56297 4921 ft 212 kts 319°
2026-04-23 16:39 37.65845 23.55480 4678 ft 210 kts 351°
2026-04-23 16:40 37.67271 23.55678 4262 ft 210 kts 22°
2026-04-23 16:40 37.68380 23.56861 3791 ft 213 kts 55°
2026-04-23 16:40 37.68803 23.58658 3364 ft 217 kts 82°
2026-04-23 16:40 37.69109 23.60493 3077 ft 211 kts 64°
2026-04-23 16:41 37.69686 23.62180 3006 ft 211 kts 64°
2026-04-23 16:41 37.70243 23.63890 3000 ft 215 kts 64°
2026-04-23 16:41 37.70812 23.65643 2996 ft 216 kts 64°
2026-04-23 16:41 37.71380 23.67389 2989 ft 214 kts 64°
2026-04-23 16:42 37.71945 23.69121 2981 ft 212 kts 64°
2026-04-23 16:42 37.72504 23.70840 2988 ft 211 kts 64°
2026-04-23 16:42 37.73061 23.72551 2995 ft 211 kts 64°
2026-04-23 16:42 37.73735 23.74045 2991 ft 206 kts 44°
2026-04-23 16:43 37.74811 23.75265 3005 ft 210 kts 36°
2026-04-23 16:43 37.75931 23.76422 2989 ft 204 kts 34°
2026-04-23 16:43 37.77006 23.77472 2991 ft 184 kts 33°
2026-04-23 16:43 37.77990 23.78407 2980 ft 176 kts 32°
2026-04-23 16:44 37.78958 23.79325 2981 ft 173 kts 32°
2026-04-23 16:44 37.79923 23.80243 2998 ft 174 kts 32°
2026-04-23 16:44 37.80905 23.81176 3012 ft 178 kts 32°
2026-04-23 16:44 37.81885 23.82110 2922 ft 172 kts 32°
2026-04-23 16:45 37.82791 23.82971 2691 ft 159 kts 32°
2026-04-23 16:45 37.83653 23.83789 2490 ft 153 kts 31°
2026-04-23 16:45 37.84496 23.84592 2284 ft 152 kts 31°
2026-04-23 16:45 37.85319 23.85377 2067 ft 142 kts 31°
2026-04-23 16:46 37.86095 23.86114 1901 ft 137 kts 31°
2026-04-23 16:46 37.86841 23.86842 1716 ft 136 kts 39°
2026-04-23 16:46 37.87562 23.87602 1520 ft 134 kts 34°
2026-04-23 16:46 37.88332 23.88277 1344 ft 137 kts 34°
2026-04-23 16:47 37.89108 23.88999 1118 ft 142 kts 38°
2026-04-23 16:47 37.89891 23.89756 951 ft 143 kts 37°
2026-04-23 16:47 37.90682 23.90499 742 ft 143 kts 36°
2026-04-23 16:47 37.91470 23.91251 591 ft 143 kts 37°
2026-04-23 16:48 37.92264 23.92001 377 ft 143 kts 37°
2026-04-23 16:48 37.93038 23.92737 302 ft 129 kts 37°
2026-04-23 16:48 37.93655 23.93321 301 ft 89 kts 37°
2026-04-23 16:48 37.93951 23.93716 301 ft 36 kts 78°
2026-04-23 16:49 37.93924 23.93828 306 ft 13 kts 148°
2026-04-23 16:49 37.93854 23.93790 308 ft 9 kts 221°
2026-04-23 16:49 37.93803 23.93739 307 ft 10 kts 217°
2026-04-23 16:49 37.93748 23.93686 307 ft 10 kts 216°
2026-04-23 16:50 37.93690 23.93632 306 ft 11 kts 217°
2026-04-23 16:50 37.93629 23.93575 306 ft 11 kts 217°
2026-04-23 16:50 37.93568 23.93517 307 ft 11 kts 217°
2026-04-23 16:50 37.93523 23.93475 307 ft 8 kts 217°
2026-04-23 16:51 37.93479 23.93433 307 ft 8 kts 213°
2026-04-23 16:51 37.93424 23.93454 307 ft 10 kts 136°
2026-04-23 16:51 37.93381 23.93523 307 ft 13 kts 127°
2026-04-23 16:51 37.93317 23.93630 309 ft 15 kts 127°
2026-04-23 16:52 37.93252 23.93739 308 ft 15 kts 127°
2026-04-23 16:52 37.93187 23.93847 309 ft 15 kts 127°
2026-04-23 16:52 37.93122 23.93955 310 ft 15 kts 127°
2026-04-23 16:52 37.93057 23.94064 308 ft 15 kts 127°
2026-04-23 16:53 37.93016 23.94133 308 ft 8 kts 127°
2026-04-23 16:53 37.92974 23.94166 310 ft 7 kts 190°
2026-04-23 16:53 37.92933 23.94129 310 ft 6 kts 217°
2026-04-23 16:53 37.92916 23.94112 306 ft 0 kts 217°